Retour au catalogue

STARLINK-30991

ActifCommunicationsVLEO
NORAD 58484·PAYLOAD·🇺🇸 United States

Lancé Dec 3, 2023 depuis Cape Canaveral Space Force Station

Loading…

Prochains Passages (prochaines 24 heures)

TLE

FraisSource: CelesTrak SupGP

Époque: Sep 14, 2026, 21:11 UTC

1 58484C 23186M   26257.88312500  .00044290  00000+0  16042-2 0  2578
2 58484  43.0029  74.8018 0001368 266.6740 152.8719 15.27554998    15

Suivez STARLINK-30991 en temps réel avec AllMySat

Download on the App Store